Regional Weather Roundup
Issued by NWS

Home | Current Version | Previous Version | Graphics & Text | Print | Product List | Glossary On
Versions: 1 2 3 4 5 6 7 8 9 10 11 12 13 14 15 16 17 18 19 20 21 22 23 24 25 26 27 28 29 30 31 32 33 34 35 36 37 38 39 40 41 42 43 44 45 46 47 48 49 50
000
ASUS45 KSLC 170910
RWRUT

UTAH REGIONAL WEATHER ROUNDUP
NATIONAL WEATHER SERVICE SALT LAKE CITY UT
200 AM MST WED DEC 17 2014

UTZ001>011-023>025-171000-

NORTHERN UTAH

CITY           SKY/WX    TMP DP  RH WIND       PRES   REMARKS
BRIGHAM CITY   MOCLDY    32  28  85 CALM      30.00S
HILL AFB       MOCLDY    33  29  85 SE5       29.98F WCI  28
LOGAN          CLOUDY    32  29  88 CALM      30.00S
OGDEN          PTCLDY    31  28  89 CALM      29.98F
PROVO AIRPORT  MOCLDY    34  28  80 CALM      29.99S
SALT LAKE CITY CLOUDY    33  30  88 CALM      29.99S
VERNAL         CLOUDY    24  23  96 NW5       30.08S FOG     WCI  18
WENDOVER       CLEAR     25  21  86 CALM      30.00S
HEBER CITY     CLOUDY    32  25  74 SW5       29.98F WCI  27
WEST JORDAN    CLOUDY    30  30 100 CALM      29.99F

$$

UTZ012>022-026-027-171000-

SOUTHERN/CENTRAL UTAH

CITY           SKY/WX    TMP DP  RH WIND       PRES   REMARKS
BLANDING       CLOUDY    33  30  90 N8        30.07F WCI  25
BRYCE CANYON   LGT SNOW  25  21  85 W5        30.01S FOG     WCI  19
CEDAR CITY     CLOUDY    35  23  61 CALM      29.97F
DELTA          CLOUDY    32  25  76 CALM      29.97F
MILFORD        CLOUDY    31  26  82 S7        29.96F WCI  24
MOAB/CYNLANDS  CLOUDY    32  31  96 W5        30.02F WCI  27
PRICE          MOCLDY    25  17  72 NE7       30.01F WCI  17
ST GEORGE      CLOUDY    43  32  65 S3        30.00S
KANAB          CLOUDY    37  28  70 N3        30.05S

$$

REGIONAL REPORTS     COLORADO/ARIZONA

CITY           SKY/WX    TMP DP  RH WIND       PRES   REMARKS
CRAIG, CO      CLOUDY    20  18  92 NW3       30.04F
GRAND JUNCTION CLOUDY    31  28  89 E3        30.03F
RIFLE          CLOUDY    28  24  85 CALM      30.06R
MONTROSE       CLOUDY    31  27  85 E7        30.05F WCI  24
CORTEZ         PTCLDY    33  26  75 N8        30.01F WCI  26
PAGE, AZ       CLOUDY    42  28  57 SW5       30.01S
GRAND CANYON   CLOUDY    32  29  88 CALM      30.01F
KINGMAN        CLOUDY    41  37  86 CALM      30.00S
FLAGSTAFF      CLOUDY    31  28  89 CALM      30.01S

$$

REGIONAL REPORTS    NEVADA/IDAHO/WYOMING

CITY           SKY/WX    TMP DP  RH WIND       PRES   REMARKS
LAS VEGAS, NV  CLOUDY    49  41  74 CALM      29.94F
ELY            CLOUDY    19  17  92 SE6       29.97F WCI  11
ELKO           CLEAR     23  20  88 NE7       29.96F WCI  15
POCATELLO, ID  CLOUDY    30  30 100 NW5       30.00S FOG     WCI  25
BURLEY         CLEAR     24  23  96 CALM      29.98S FOG
EVANSTON, WY   PTCLDY    28  18  66 CALM      29.97F
ROCK SPRINGS   MOCLDY    15  12  88 CALM      30.00S

$$



USA.gov is the U.S. government's official web portal to all federal, state and local government web resources and services.